Starlink 30084

operational
NORAD ID: 56825 Int'l Des: 2023-079 Owner: SPXS Country: US Constellation: starlink
LEOCIRCULAR

Über Starlink 30084

Beschreibung wird geladen...

Live-Position

3D-Globus wird geladen...

Nächste Überflüge

Höhenverlauf

Altitude vs Time

uPlot chart will show altitude changes over time

Zweizeiliger Elementsatz

1 56825U 23079C 25354.58040748 -.00003266 00000-0 -22675-3 0 9996
2 56825 43.0036 177.2913 0001621 269.4620 90.6036 15.02539297140982
Epoch: 20. Dez. 2025 • Age: 5 hours

Aktueller Status

Höhe 559.3 km
Geschwindigkeit 7.59 km/s
Subsatellitenpunkt 22.53°N, 170.18°W
Startdatum 4. Juni 2023
Alter 2.5 years
Typ internet

Technische Details

Klassifizierung Payload
Masse 730.00 kg
Trockenmasse 700.00 kg
Gesamtmasse 730.00 kg
Länge 0.30 m
Durchmesser 4.10 m
Spannweite 29.00 m
Form Box + pan
Hersteller SPXS
Bus-Typ Starlink V2M
Phasenstatus In Orbit
Besitzer/Staat SPXS/US

Große Konstellationen

Loading constellations...